map of LYKV home
LYKV - Airport
Location
City:  Kraljevo, Serbia
Name:Ladevci
Old (Alt.):Obrva
ICAO:LYKV

Details
Type:Airport (Aerodrome, Airfield)
Latitude:4349'06"N (43.818333)
Longitude:2035'14"E (20.587222)
Elevation:686 ft (209 m)
Variation:4.83E (WMM2015v2 magnetic declination)
0.13 annual change
Runways:1
Longest:7218 ft (2200 m), paved

Time
Time Zone:UTC+1 (DST+2)
Local Time:

Weather
METAR:LYKV 041400Z 30005KT 270V330 9999 SCT015 BKN027 04/02 Q1027 NOSIG
TAF:LYKV 041100Z 0412/0512 32006KT 6000 -RA BKN013 OVC027 TX04/0413Z TN01/0506Z
BECMG 0418/0420 3000 BR BKN005 BKN027
TEMPO 0501/0507 1000

Related Locations
Nearby:
Farthest:CHT: 11590 mi / 18652 km
Waitangi [Tuuta], CIT, NZ

Find:

   beyond  
but within

Other Information
Maps:
NOTAMs:
Links:
Sources:

  
  • flag of Serbia
  

Sectional Chart

Flight Planning
at skyvector.com

Satellite Image

Google Maps Satellite view

 

Copyright © 2004-2019 Karl L. Swartz. All rights reserved.
The Great Circle Mapper name and logo are trademarks of the Great Circle Mapper.
All other trademarks mentioned herein belong to their respective owners.
Please see credits for attibutions and further copyright information.

  Follow gcmap on Facebook Follow gcmap on Twitter GCmap on LinkedIn

hCard Microformat

Geo Microformat